Elizabeth City, NC

7:58 AM EDT on June 27, 2017 (GMT -0400)
Elizabeth City Cgas-Regional

Weather History for KECG - October, 2013

Change the Weather History Date:

Friday, October 18, 2013

  Actual Average Record
Temperature  
Mean Temperature 66 °F 62 °F  
Max Temperature 70 °F 72 °F 87 °F (1938)
Min Temperature 61 °F 51 °F 33 °F (1977)
Degree Days  
Heating Degree Days 0 5  
Month to date heating degree days 1 54  
Since 1 July heating degree days 16 66  
Cooling Degree Days 1 1  
Month to date cooling degree days 86 44  
Year to date cooling degree days 1657 1566  
Growing Degree Days 16 (Base 50)    
Moisture  
Dew Point 58 °F    
Average Humidity 77    
Maximum Humidity 93    
Minimum Humidity 61    
Precipitation  
Precipitation 0.00 in 0.09 in 1.13 in (1957)
Month to date precipitation 5.50 1.84  
Year to date precipitation 36.37 39.73  
Snow  
Snow 0.00 in - 0.00 in (2002)
Month to date snowfall 0.0  
Since 1 July snowfall 0.0  
Snow Depth 0.00 in    
Sea Level Pressure  
Sea Level Pressure 29.97 in    
Wind  
Wind Speed 7 mph (NE)    
Max Wind Speed 14 mph    
Max Gust Speed 24 mph    
Visibility 10 miles    
Events      
T = Trace of Precipitation, MM = Missing Value Source: NWS Daily Summary

Daily Weather History Graph

Daily Weather History Graph

Search for Another Location

Airport or City:

Trip Planner

Search our weather history database for the weather conditions in past years. The results will help you decide how hot, cold, wet, or windy it might be!

Date:

Astronomy

Oct. 18, 2013 Rise Set
Actual Time 7:14 AM EDT 6:24 PM EDT
Civil Twilight 6:48 AM EDT 6:50 PM EDT
Nautical Twilight 6:18 AM EDT 7:20 PM EDT
Astronomical Twilight 5:48 AM EDT 7:50 PM EDT
Moon 6:13 PM EDT (10/18) 6:47 AM EDT (10/18)
Length of Visible Light 12h 01m
Length of Day
11h 09m
Full, 100% of the Moon is Illuminated
Oct 18
Full
Oct 18
Full
Oct 26
Last Quarter
Nov 3
New
Nov 10
First Quarter

Hourly Weather History & Observations

Time (EDT) Temp. Dew Point Humidity Pressure Visibility Wind Dir Wind Speed Gust Speed Precip Events Conditions
12:54 AM 70.0 °F 64.9 °F 84% 29.87 in 10.0 mi SW 10.4 mph - N/A   Overcast
1:54 AM 70.0 °F 64.9 °F 84% 29.87 in 10.0 mi SW 9.2 mph - N/A   Overcast
2:54 AM 70.0 °F 64.9 °F 84% 29.87 in 10.0 mi WSW 9.2 mph - N/A   Overcast
3:05 AM 69.8 °F 64.4 °F 83% 29.87 in 10.0 mi WSW 8.1 mph - N/A   Overcast
3:47 AM 69.8 °F 64.4 °F 83% 29.87 in 10.0 mi West 5.8 mph - N/A   Scattered Clouds
3:54 AM 69.1 °F 64.9 °F 87% 29.88 in 10.0 mi WSW 6.9 mph - N/A   Mostly Cloudy
4:54 AM 66.9 °F 64.0 °F 90% 29.89 in 10.0 mi WNW 10.4 mph - N/A   Partly Cloudy
5:54 AM 66.0 °F 63.0 °F 90% 29.91 in 10.0 mi WNW 8.1 mph - N/A   Clear
6:54 AM 64.0 °F 61.0 °F 90% 29.94 in 10.0 mi WNW 6.9 mph - N/A   Clear
7:54 AM 64.0 °F 60.1 °F 87% 29.95 in 10.0 mi NW 9.2 mph - N/A   Mostly Cloudy
8:54 AM 66.0 °F 60.1 °F 81% 29.99 in 10.0 mi NNW 9.2 mph - N/A   Mostly Cloudy
9:15 AM 64.4 °F 60.8 °F 88% 30.00 in 10.0 mi North 9.2 mph - N/A   Overcast
9:54 AM 66.9 °F 57.0 °F 70% 30.01 in 10.0 mi NNE 10.4 mph - N/A   Overcast
10:54 AM 69.1 °F 55.0 °F 61% 30.03 in 10.0 mi NE 11.5 mph - N/A   Overcast
11:01 AM 66.2 °F 53.6 °F 64% 30.02 in 10.0 mi NE 12.7 mph - N/A   Overcast
11:11 AM 66.2 °F 53.6 °F 64% 30.03 in 10.0 mi NE 10.4 mph - N/A   Overcast
11:19 AM 66.2 °F 53.6 °F 64% 30.03 in 10.0 mi NE 11.5 mph - N/A   Overcast
11:54 AM 66.9 °F 53.1 °F 61% 30.03 in 10.0 mi NNE 9.2 mph - N/A   Overcast
12:01 PM 66.2 °F 51.8 °F 60% 30.03 in 10.0 mi NNE 8.1 mph - N/A   Overcast
12:54 PM 66.9 °F 53.1 °F 61% 30.02 in 10.0 mi NE 6.9 mph - N/A   Overcast
1:54 PM 66.9 °F 53.1 °F 61% 30.00 in 10.0 mi East 5.8 mph - N/A   Overcast
2:54 PM 66.9 °F 54.0 °F 63% 29.99 in 10.0 mi East 5.8 mph - N/A   Overcast
3:54 PM 66.9 °F 54.0 °F 63% 29.99 in 10.0 mi East 5.8 mph - N/A   Overcast
4:54 PM 66.0 °F 54.0 °F 65% 29.99 in 10.0 mi East 4.6 mph - N/A   Overcast
5:54 PM 64.9 °F 54.0 °F 68% 29.99 in 10.0 mi East 5.8 mph - N/A   Overcast
6:54 PM 64.0 °F 54.0 °F 70% 30.01 in 10.0 mi East 4.6 mph - N/A   Overcast
7:54 PM 62.1 °F 54.0 °F 75% 30.01 in 10.0 mi East 4.6 mph - N/A   Mostly Cloudy
8:54 PM 61.0 °F 55.0 °F 81% 30.02 in 10.0 mi East 4.6 mph - N/A   Partly Cloudy
9:54 PM 63.0 °F 55.9 °F 78% 30.02 in 10.0 mi SE 4.6 mph - N/A   Partly Cloudy
10:54 PM 61.0 °F 55.9 °F 83% 30.02 in 10.0 mi ESE 3.5 mph - N/A   Partly Cloudy
11:54 PM 64.0 °F 57.0 °F 78% 30.00 in 10.0 mi East 4.6 mph - N/A   Overcast